sat.trackr.live / text

‹ back to catalog

STARLINK-3644

NORAD 51987 · 2022-025AH

PAYLOAD ACTIVE UNKNOWN

§ Identity

Operator
Country
US
Launch date
2022-03-09
Launch site
AFETR
Launch vehicle
Mass (kg)
RCS (m²)

Purposes: comms

External: N2YO · Heavens-Above · Gunter

§ Orbital elements

Epoch: 2026-05-25T03:44:14.648640Z

Period
95.44 min
Inclination
53.2129°
Eccentricity
0.0001257
Mean motion
15.08841682 rev/d
Perigee alt
538.9 km
Apogee alt
540.6 km
Semi-major
6,917.9 km
B*
6.1380e-6
RAAN
55.8499°
Arg perigee
83.9544°
Mean anomaly
276.1592°
Rev number
23,260

§ Raw data

STARLINK-36441 51987U 22025AH  26145.15572510 -.00000190  00000+0  61380-5 0  99982 51987  53.2129  55.8499 0001257  83.9544 276.1592 15.08841682232600

JSON: /api/v1/satellites/51987 · /tle

For live sub-satellite position, see the globe view (requires WebGL).

§ Visibility from observer

Set your observer location to see the next 7 days of passes ≥ 10°. The values pass through the URL so the page stays shareable.

No JS? Fill the form by hand. The geolocation button needs JavaScript.